| time (UTC) | temp F | wind direction | speed knots | gust knots | rain 1hr in | rain 24hr in | rain mn in | humidity % | barometer mb |
| 20260901201002 | 68 | 109 | 4.3 | 5.2 | 0.00 | 0.00 | 0.00 | 94 | 1012.0 |
| 20260901200502 | 68 | 97 | 2.6 | 6.1 | 0.00 | 0.00 | 0.00 | 95 | 1012.1 |
| 20260901200255 | 68 | 83 | 2.6 | 6.1 | 0.00 | 0.00 | 0.00 | 94 | 1012.2 |
| 20260901195506 | 68 | 92 | 3.5 | 5.2 | 0.00 | 0.00 | 0.00 | 94 | 1012.2 |
| 20260901195042 | 68 | 75 | 2.6 | 5.2 | 0.00 | 0.00 | 0.00 | 94 | 1012.2 |
| 20260901194503 | 69 | 89 | 2.6 | 6.1 | 0.00 | 0.00 | 0.00 | 93 | 1012.3 |
| 20260901194000 | 69 | 62 | 3.5 | 6.1 | 0.00 | 0.00 | 0.00 | 94 | 1012.2 |
| 20260901193500 | 69 | 65 | 2.6 | 6.1 | 0.00 | 0.00 | 0.00 | 94 | 1012.1 |
| 20260901192958 | 69 | 54 | 4.3 | 6.1 | 0.00 | 0.00 | 0.00 | 93 | 1012.2 |
| 20260901192729 | 69 | 99 | 3.5 | 6.1 | 0.00 | 0.00 | 0.00 | 93 | 1012.1 |
| 20260901191954 | 69 | 95 | 2.6 | 6.1 | 0.00 | 0.00 | 0.00 | 93 | 1012.2 |
| 20260901191719 | 69 | 65 | 3.5 | 6.1 | 0.00 | 0.00 | 0.00 | 93 | 1012.3 |
| 20260901190951 | 69 | 107 | 5.2 | 6.1 | 0.00 | 0.00 | 0.00 | 93 | 1012.3 |
| 20260901190449 | 69 | 45 | 2.6 | 6.1 | 0.00 | 0.00 | 0.00 | 94 | 1012.4 |
| 20260901185950 | 69 | 35 | 1.7 | 6.1 | 0.00 | 0.00 | 0.00 | 93 | 1012.5 |
| 20260901185720 | 69 | 85 | 2.6 | 6.1 | 0.00 | 0.00 | 0.00 | 94 | 1012.5 |
| 20260901184950 | 69 | 62 | 3.5 | 5.2 | 0.00 | 0.00 | 0.00 | 93 | 1012.5 |
| 20260901184448 | 69 | 55 | 3.5 | 5.2 | 0.00 | 0.00 | 0.00 | 93 | 1012.5 |
| 20260901183949 | 69 | 52 | 1.7 | 4.3 | 0.00 | 0.00 | 0.00 | 93 | 1012.4 |
| 20260901183531 | 70 | 34 | 3.5 | 5.2 | 0.00 | 0.00 | 0.00 | 92 | 1012.4 |
| 20260901183027 | 70 | 14 | 1.7 | 5.2 | 0.00 | 0.00 | 0.00 | 93 | 1012.4 |
| 20260901182516 | 70 | 68 | 1.7 | 4.3 | 0.00 | 0.00 | 0.00 | 93 | 1012.5 |
| 20260901181949 | 70 | 75 | 1.7 | 5.2 | 0.00 | 0.00 | 0.00 | 93 | 1012.5 |
| 20260901181449 | 70 | 75 | 1.7 | 5.2 | 0.00 | 0.00 | 0.00 | 92 | 1012.4 |
| 20260901180947 | 70 | 220 | 0.9 | 5.2 | 0.00 | 0.00 | 0.00 | 93 | 1012.4 |
| 20260901180448 | 70 | 78 | 2.6 | 4.3 | 0.00 | 0.00 | 0.00 | 93 | 1012.4 |
| 20260901175946 | 70 | 18 | 1.7 | 6.1 | 0.00 | 0.00 | 0.00 | 92 | 1012.5 |
| 20260901175447 | 70 | 348 | 2.6 | 6.1 | 0.00 | 0.00 | 0.00 | 91 | 1012.4 |
| 20260901175215 | 71 | 93 | 1.7 | 5.2 | 0.00 | 0.00 | 0.00 | 92 | 1012.4 |
| 20260901174449 | 71 | 71 | 2.6 | 5.2 | 0.00 | 0.00 | 0.00 | 92 | 1012.3 |
| 20260901172946 | 70 | 72 | 1.7 | 4.3 | 0.00 | 0.00 | 0.00 | 91 | 1012.2 |
| 20260901172449 | 71 | 59 | 1.7 | 4.3 | 0.00 | 0.00 | 0.00 | 93 | 1012.0 |
| 20260901171946 | 70 | 62 | 3.5 | 6.1 | 0.00 | 0.00 | 0.00 | 93 | 1012.2 |
| 20260901171442 | 70 | 72 | 3.5 | 6.1 | 0.00 | 0.00 | 0.00 | 91 | 1012.2 |
| 20260901170939 | 70 | 76 | 4.3 | 6.1 | 0.00 | 0.00 | 0.00 | 90 | 1012.1 |
| 20260901170439 | 72 | 69 | 4.3 | 6.1 | 0.00 | 0.00 | 0.00 | 88 | 1012.0 |
| 20260901165939 | 74 | 52 | 1.7 | 4.3 | 0.00 | 0.00 | 0.00 | 90 | 1012.1 |
| 20260901165439 | 72 | 104 | 1.7 | 3.5 | 0.00 | 0.00 | 0.00 | 91 | 1012.0 |
| 20260901164941 | 71 | 86 | 1.7 | 3.5 | 0.00 | 0.00 | 0.00 | 93 | 1012.1 |
| 20260901164441 | 70 | 99 | 1.7 | 3.5 | 0.00 | 0.00 | 0.00 | 92 | 1012.1 |
| 20260901163936 | 70 | 71 | 1.7 | 4.3 | 0.00 | 0.00 | 0.00 | 92 | 1012.3 |
| 20260901163434 | 70 | 83 | 1.7 | 5.2 | 0.00 | 0.00 | 0.00 | 94 | 1012.3 |
| 20260901162934 | 70 | 80 | 2.6 | 5.2 | 0.00 | 0.00 | 0.00 | 92 | 1012.4 |
| 20260901162434 | 70 | 59 | 2.6 | 4.3 | 0.00 | 0.00 | 0.00 | 93 | 1012.5 |
| 20260901161933 | 70 | 61 | 3.5 | 4.3 | 0.00 | 0.00 | 0.00 | 93 | 1012.4 |
| 20260901161435 | 70 | 51 | 2.6 | 5.2 | 0.00 | 0.00 | 0.00 | 93 | 1012.5 |
| 20260901160933 | 70 | 85 | 2.6 | 5.2 | 0.00 | 0.00 | 0.00 | 93 | 1012.5 |
| 20260901160436 | 70 | 68 | 3.5 | 4.3 | 0.00 | 0.00 | 0.00 | 93 | 1012.5 |
| 20260901155932 | 69 | 49 | 1.7 | 3.5 | 0.00 | 0.00 | 0.00 | 94 | 1012.7 |
| 20260901155433 | 69 | 42 | 1.7 | 3.5 | 0.00 | 0.00 | 0.00 | 95 | 1012.7 |
| 20260901154933 | 69 | 59 | 2.6 | 3.5 | 0.00 | 0.00 | 0.00 | 95 | 1012.9 |
| 20260901154434 | 68 | 56 | 1.7 | 2.6 | 0.00 | 0.00 | 0.00 | 97 | 1013.0 |
| 20260901153934 | 67 | 37 | 1.7 | 3.5 | 0.00 | 0.00 | 0.00 | 95 | 1013.0 |
| 20260901153432 | 67 | 40 | 1.7 | 3.5 | 0.00 | 0.00 | 0.00 | 96 | 1013.0 |
| 20260901152934 | 67 | 35 | 1.7 | 3.5 | 0.00 | 0.00 | 0.00 | 96 | 1013.1 |
| 20260901152432 | 67 | 55 | 1.7 | 3.5 | 0.00 | 0.00 | 0.00 | 96 | 1013.1 |
| 20260901151932 | 67 | 28 | 0.9 | 3.5 | 0.00 | 0.00 | 0.00 | 96 | 1013.1 |
| 20260901151432 | 67 | 18 | 0.9 | 3.5 | 0.00 | 0.00 | 0.00 | 96 | 1013.2 |
| 20260901150930 | 67 | 12 | 1.7 | 3.5 | 0.00 | 0.00 | 0.00 | 96 | 1013.2 |
| 20260901150430 | 67 | 15 | 0.9 | 2.6 | 0.00 | 0.00 | 0.00 | 97 | 1013.1 |
| 20260901145929 | 67 | 24 | 0.9 | 3.5 | 0.00 | 0.00 | 0.00 | 97 | 1013.0 |
| 20260901145430 | 67 | 69 | 2.6 | 3.5 | 0.00 | 0.00 | 0.00 | 97 | 1012.8 |
| 20260901144925 | 67 | 78 | 0.9 | 3.5 | 0.00 | 0.01 | 0.00 | 97 | 1012.8 |
| 20260901144424 | 67 | 71 | 1.7 | 3.5 | 0.00 | 0.01 | 0.00 | 97 | 1012.7 |
| 20260901143925 | 67 | 79 | 0.9 | 3.5 | 0.00 | 0.01 | 0.00 | 97 | 1012.6 |
| 20260901143655 | 67 | 65 | 1.7 | 3.5 | 0.00 | 0.01 | 0.00 | 97 | 1012.8 |
| 20260901142920 | 67 | 19 | 0.9 | 2.6 | 0.00 | 0.01 | 0.00 | 97 | 1012.8 |
| 20260901142711 | 68 | 7 | 0.9 | 3.5 | 0.00 | 0.01 | 0.00 | 97 | 1012.8 |
| 20260901141922 | 67 | 42 | 0.9 | 3.5 | 0.00 | 0.01 | 0.00 | 98 | 1012.7 |
| 20260901141416 | 67 | 61 | 1.7 | 2.6 | 0.00 | 0.01 | 0.00 | 98 | 1012.5 |
| 20260901140917 | 67 | 78 | 1.7 | 2.6 | 0.00 | 0.01 | 0.00 | 98 | 1012.6 |
| 20260901140416 | 67 | 66 | 0.9 | 3.5 | 0.00 | 0.01 | 0.00 | 98 | 1012.6 |
| 20260901135916 | 67 | 82 | 1.7 | 3.5 | 0.00 | 0.02 | 0.00 | 98 | 1012.5 |
| 20260901135641 | 67 | 52 | 1.7 | 2.6 | 0.00 | 0.02 | 0.00 | 98 | 1012.6 |
| 20260901134914 | 67 | 41 | 0.9 | 1.7 | 0.00 | 0.02 | 0.00 | 98 | 1012.5 |
| 20260901134415 | 67 | 164 | 0.0 | 1.7 | 0.00 | 0.02 | 0.00 | 98 | 1012.4 |
| 20260901133914 | 67 | 164 | 0.0 | 1.7 | 0.00 | 0.02 | 0.00 | 98 | 1012.5 |
| 20260901133412 | 67 | 255 | 0.0 | 1.7 | 0.00 | 0.02 | 0.00 | 98 | 1012.5 |
| 20260901132913 | 67 | 265 | 0.9 | 2.6 | 0.00 | 0.02 | 0.00 | 98 | 1012.4 |
| 20260901132413 | 67 | 224 | 0.0 | 2.6 | 0.00 | 0.02 | 0.00 | 98 | 1012.3 |
| 20260901132140 | 66 | 210 | 0.9 | 2.6 | 0.00 | 0.02 | 0.00 | 98 | 1012.3 |
| 20260901131412 | 66 | 279 | 0.0 | 2.6 | 0.00 | 0.02 | 0.00 | 98 | 1012.3 |
| 20260901130910 | 66 | 299 | 0.0 | 2.6 | 0.00 | 0.02 | 0.00 | 98 | 1012.3 |
| 20260901130411 | 66 | 274 | 0.0 | 2.6 | 0.00 | 0.02 | 0.00 | 98 | 1012.3 |
| 20260901125911 | 66 | 279 | 0.0 | 0.9 | 0.00 | 0.02 | 0.00 | 98 | 1012.3 |
| 20260901125411 | 66 | 248 | 0.0 | 1.7 | 0.00 | 0.02 | 0.00 | 98 | 1012.3 |
| 20260901124907 | 66 | 236 | 0.9 | 1.7 | 0.00 | 0.02 | 0.00 | 98 | 1012.2 |
| 20260901124405 | 66 | 257 | 0.9 | 1.7 | 0.00 | 0.02 | 0.00 | 98 | 1012.2 |
| 20260901123906 | 66 | 271 | 0.0 | 0.9 | 0.00 | 0.02 | 0.00 | 98 | 1012.1 |
| 20260901123406 | 66 | 313 | 0.0 | 0.9 | 0.00 | 0.02 | 0.00 | 98 | 1012.1 |
| 20260901122907 | 66 | 307 | 0.0 | 2.6 | 0.00 | 0.02 | 0.00 | 98 | 1012.2 |
| 20260901122405 | 66 | 306 | 0.0 | 2.6 | 0.00 | 0.02 | 0.00 | 98 | 1012.2 |
| 20260901121905 | 66 | 305 | 0.9 | 1.7 | 0.00 | 0.02 | 0.00 | 98 | 1012.2 |
| 20260901121630 | 66 | 269 | 0.0 | 2.6 | 0.00 | 0.02 | 0.00 | 98 | 1012.2 |
| 20260901120907 | 65 | 271 | 0.0 | 2.6 | 0.00 | 0.02 | 0.00 | 98 | 1012.2 |
| 20260901120404 | 65 | 254 | 0.9 | 2.6 | 0.00 | 0.02 | 0.00 | 98 | 1012.3 |
| 20260901115904 | 65 | 326 | 0.9 | 2.6 | 0.00 | 0.02 | 0.00 | 98 | 1012.3 |
| 20260901115404 | 65 | 286 | 0.9 | 2.6 | 0.00 | 0.02 | 0.00 | 98 | 1012.2 |
| 20260901114904 | 65 | 331 | 0.0 | 1.7 | 0.00 | 0.02 | 0.00 | 98 | 1012.1 |
| 20260901114404 | 65 | 244 | 0.0 | 1.7 | 0.00 | 0.02 | 0.00 | 98 | 1012.0 |
| 20260901113905 | 65 | 302 | 0.0 | 1.7 | 0.00 | 0.02 | 0.00 | 98 | 1012.0 |
| 20260901113403 | 65 | 316 | 0.0 | 2.6 | 0.00 | 0.02 | 0.00 | 98 | 1012.0 |
| 20260901112905 | 65 | 344 | 0.9 | 2.6 | 0.00 | 0.02 | 0.00 | 98 | 1012.0 |
| 20260901112405 | 65 | 355 | 0.0 | 1.7 | 0.00 | 0.02 | 0.00 | 98 | 1012.0 |
| 20260901112137 | 65 | 2 | 0.0 | 1.7 | 0.00 | 0.02 | 0.00 | 98 | 1012.0 |
| 20260901111400 | 65 | 305 | 0.0 | 2.6 | 0.00 | 0.02 | 0.00 | 98 | 1011.9 |
| 20260901110903 | 65 | 306 | 0.0 | 2.6 | 0.00 | 0.02 | 0.00 | 98 | 1011.9 |
| 20260901110401 | 65 | 293 | 0.9 | 2.6 | 0.00 | 0.02 | 0.00 | 98 | 1011.9 |
| 20260901105859 | 65 | 305 | 0.0 | 0.9 | 0.00 | 0.02 | 0.00 | 98 | 1011.8 |
| 20260901105403 | 65 | 30 | 0.0 | 2.6 | 0.00 | 0.02 | 0.00 | 98 | 1011.7 |
| 20260901104900 | 65 | 343 | 0.0 | 2.6 | 0.00 | 0.02 | 0.00 | 98 | 1011.7 |
| 20260901104359 | 65 | 24 | 0.0 | 3.5 | 0.00 | 0.02 | 0.00 | 97 | 1011.6 |
| 20260901103900 | 65 | 319 | 0.0 | 3.5 | 0.00 | 0.02 | 0.00 | 97 | 1011.7 |
| 20260901103359 | 65 | 316 | 0.0 | 1.7 | 0.00 | 0.02 | 0.00 | 97 | 1011.8 |
| 20260901102402 | 65 | 312 | 0.0 | 4.3 | 0.00 | 0.02 | 0.00 | 97 | 1011.7 |
| 20260901101857 | 65 | 329 | 0.0 | 2.6 | 0.00 | 0.02 | 0.00 | 97 | 1011.8 |
| 20260901101357 | 65 | 21 | 0.0 | 2.6 | 0.00 | 0.02 | 0.00 | 97 | 1011.7 |
| 20260901100858 | 65 | 351 | 0.0 | 2.6 | 0.00 | 0.02 | 0.00 | 97 | 1011.6 |
| 20260901100356 | 65 | 344 | 0.0 | 1.7 | 0.00 | 0.02 | 0.00 | 97 | 1011.6 |
| 20260901095855 | 65 | 25 | 0.0 | 2.6 | 0.00 | 0.02 | 0.00 | 97 | 1011.6 |
| 20260901095625 | 65 | 58 | 0.0 | 3.5 | 0.00 | 0.02 | 0.00 | 97 | 1011.6 |
| 20260901095121 | 65 | 300 | 0.9 | 3.5 | 0.00 | 0.02 | 0.00 | 97 | 1011.6 |
| 20260901094357 | 66 | 347 | 0.0 | 4.3 | 0.00 | 0.02 | 0.00 | 97 | 1011.6 |
| 20260901094128 | 66 | 31 | 0.0 | 4.3 | 0.00 | 0.02 | 0.00 | 97 | 1011.6 |
| 20260901093355 | 66 | 1 | 1.7 | 4.3 | 0.00 | 0.02 | 0.00 | 97 | 1011.5 |
| 20260901092854 | 66 | 25 | 0.0 | 6.1 | 0.00 | 0.02 | 0.00 | 97 | 1011.3 |
| 20260901092355 | 66 | 298 | 0.9 | 6.1 | 0.00 | 0.02 | 0.00 | 97 | 1011.3 |
| 20260901091853 | 66 | 306 | 0.9 | 6.1 | 0.00 | 0.02 | 0.00 | 97 | 1011.4 |
| 20260901091352 | 66 | 327 | 1.7 | 6.1 | 0.00 | 0.02 | 0.00 | 97 | 1011.3 |
| 20260901090853 | 66 | 355 | 0.9 | 7.8 | 0.00 | 0.02 | 0.00 | 97 | 1011.3 |
| 20260901090352 | 67 | 278 | 0.9 | 7.8 | 0.00 | 0.02 | 0.00 | 97 | 1011.1 |
| 20260901085850 | 67 | 21 | 0.9 | 4.3 | 0.00 | 0.02 | 0.00 | 97 | 1011.0 |
| 20260901085351 | 67 | 15 | 0.0 | 3.5 | 0.00 | 0.02 | 0.00 | 97 | 1011.0 |
| 20260901084852 | 68 | 313 | 0.9 | 7.8 | 0.00 | 0.02 | 0.00 | 97 | 1010.9 |
| 20260901084351 | 68 | 295 | 0.9 | 7.8 | 0.00 | 0.02 | 0.00 | 97 | 1010.9 |
| 20260901083850 | 68 | 292 | 0.9 | 4.3 | 0.00 | 0.02 | 0.00 | 97 | 1010.9 |
| 20260901083350 | 68 | 336 | 0.9 | 5.2 | 0.00 | 0.02 | 0.00 | 97 | 1010.8 |
| 20260901082850 | 68 | 276 | 0.9 | 5.2 | 0.00 | 0.02 | 0.00 | 97 | 1010.7 |
| 20260901082349 | 68 | 350 | 0.9 | 5.2 | 0.00 | 0.02 | 0.00 | 97 | 1010.7 |
| 20260901082121 | 68 | 320 | 2.6 | 5.2 | 0.00 | 0.02 | 0.00 | 97 | 1010.7 |
| 20260901080847 | 68 | 309 | 1.7 | 6.1 | 0.00 | 0.02 | 0.00 | 97 | 1010.7 |
| 20260901080346 | 69 | 8 | 0.9 | 3.5 | 0.00 | 0.02 | 0.00 | 97 | 1010.7 |
| 20260901075845 | 69 | 309 | 0.9 | 3.5 | 0.00 | 0.02 | 0.00 | 97 | 1010.6 |
| 20260901075346 | 69 | 312 | 0.0 | 2.6 | 0.00 | 0.02 | 0.00 | 97 | 1010.6 |
| 20260901074845 | 69 | 316 | 0.9 | 2.6 | 0.00 | 0.02 | 0.00 | 97 | 1010.5 |
| 20260901074345 | 69 | 324 | 0.9 | 2.6 | 0.00 | 0.02 | 0.00 | 97 | 1010.6 |
| 20260901073845 | 69 | 316 | 0.0 | 3.5 | 0.00 | 0.02 | 0.00 | 97 | 1010.5 |
| 20260901073345 | 69 | 310 | 0.9 | 3.5 | 0.00 | 0.02 | 0.00 | 97 | 1010.5 |
| 20260901072844 | 69 | 305 | 0.9 | 4.3 | 0.00 | 0.02 | 0.00 | 97 | 1010.4 |
| 20260901072342 | 69 | 305 | 1.7 | 4.3 | 0.00 | 0.02 | 0.00 | 97 | 1010.4 |
| 20260901072110 | 69 | 322 | 1.7 | 3.5 | 0.00 | 0.02 | 0.00 | 97 | 1010.3 |
| 20260901071340 | 68 | 288 | 1.7 | 4.3 | 0.00 | 0.02 | 0.00 | 97 | 1010.5 |
| 20260901070839 | 67 | 272 | 1.7 | 4.3 | 0.00 | 0.02 | 0.00 | 97 | 1010.4 |
| 20260901070559 | 66 | 296 | 2.6 | 3.5 | 0.00 | 0.02 | 0.00 | 96 | 1010.3 |
| 20260901065832 | 66 | 275 | 1.7 | 2.6 | 0.00 | 0.02 | 0.00 | 96 | 1010.3 |
| 20260901065332 | 66 | 281 | 0.0 | 0.9 | 0.00 | 0.02 | 0.00 | 96 | 1010.2 |
| 20260901064833 | 66 | 236 | 0.0 | 0.0 | 0.00 | 0.02 | 0.00 | 95 | 1010.1 |
| 20260901064332 | 66 | 28 | 0.0 | 0.0 | 0.00 | 0.02 | 0.00 | 95 | 1010.1 |
| 20260901063832 | 66 | 28 | 0.0 | 0.0 | 0.00 | 0.02 | 0.00 | 95 | 1010.2 |
| 20260901063332 | 66 | 28 | 0.0 | 0.0 | 0.00 | 0.02 | 0.00 | 95 | 1010.2 |
| 20260901062836 | 66 | 28 | 0.0 | 0.0 | 0.00 | 0.02 | 0.00 | 95 | 1010.1 |
| 20260901062604 | 66 | 28 | 0.0 | 0.0 | 0.00 | 0.02 | 0.00 | 95 | 1010.1 |
| 20260901061327 | 67 | 28 | 0.0 | 0.0 | 0.00 | 0.02 | 0.00 | 95 | 1010.2 |
| 20260901060826 | 67 | 28 | 0.0 | 0.0 | 0.00 | 0.02 | 0.00 | 95 | 1010.1 |
| 20260901060327 | 67 | 28 | 0.0 | 0.0 | 0.00 | 0.02 | 0.00 | 95 | 1010.0 |
| 20260901055826 | 67 | 28 | 0.0 | 0.9 | 0.00 | 0.02 | 0.00 | 95 | 1010.1 |
| 20260901055554 | 67 | 28 | 0.0 | 0.9 | 0.00 | 0.02 | 0.00 | 94 | 1010.2 |
| 20260901054827 | 67 | 30 | 0.0 | 0.9 | 0.00 | 0.02 | 0.00 | 94 | 1010.1 |
| 20260901054327 | 67 | 48 | 0.0 | 0.9 | 0.00 | 0.02 | 0.00 | 94 | 1010.1 |
| 20260901053827 | 67 | 48 | 0.9 | 0.9 | 0.00 | 0.02 | 0.00 | 94 | 1010.1 |
| 20260901053325 | 68 | 47 | 0.0 | 0.0 | 0.00 | 0.02 | 0.00 | 94 | 1010.3 |
| 20260901052826 | 68 | 47 | 0.0 | 0.0 | 0.00 | 0.02 | 0.00 | 94 | 1010.3 |
| 20260901052553 | 68 | 45 | 0.0 | 0.0 | 0.00 | 0.02 | 0.00 | 94 | 1010.3 |
| 20260901052054 | 68 | 45 | 0.0 | 0.0 | 0.00 | 0.02 | 0.00 | 94 | 1010.3 |
| 20260901051325 | 68 | 47 | 0.0 | 0.0 | 0.00 | 0.02 | 0.00 | 93 | 1010.4 |
| 20260901051054 | 69 | 47 | 0.0 | 0.9 | 0.00 | 0.02 | 0.00 | 93 | 1010.3 |
| 20260901050326 | 69 | 45 | 0.0 | 1.7 | 0.00 | 0.02 | 0.00 | 94 | 1010.3 |
| 20260901045821 | 69 | 45 | 0.9 | 1.7 | 0.00 | 0.02 | 0.00 | 94 | 1010.5 |
| 20260901045321 | 69 | 52 | 0.9 | 0.9 | 0.00 | 0.02 | 0.00 | 93 | 1010.5 |
| 20260901044822 | 69 | 52 | 0.0 | 0.9 | 0.00 | 0.02 | 0.00 | 93 | 1010.5 |
| 20260901044320 | 69 | 52 | 0.0 | 0.0 | 0.00 | 0.02 | 0.00 | 93 | 1010.5 |
| 20260901043819 | 69 | 52 | 0.0 | 0.9 | 0.00 | 0.02 | 0.00 | 93 | 1010.5 |
| 20260901043319 | 69 | 52 | 0.0 | 1.7 | 0.00 | 0.02 | 0.00 | 92 | 1010.4 |
| 20260901042820 | 70 | 55 | 0.0 | 1.7 | 0.00 | 0.02 | 0.00 | 93 | 1010.5 |
| 20260901042320 | 70 | 290 | 0.0 | 2.6 | 0.00 | 0.02 | 0.00 | 92 | 1010.4 |
| 20260901042047 | 71 | 31 | 0.0 | 2.6 | 0.00 | 0.02 | 0.00 | 92 | 1010.4 |
| 20260901041321 | 71 | 28 | 0.9 | 3.5 | 0.00 | 0.02 | 0.00 | 92 | 1010.5 |
| 20260901040819 | 72 | 357 | 0.0 | 5.2 | 0.00 | 0.02 | 0.00 | 94 | 1010.3 |
| 20260901040318 | 72 | 298 | 2.6 | 7.8 | 0.00 | 0.02 | 0.00 | 94 | 1010.4 |
| 20260901035819 | 72 | 268 | 2.6 | 7.8 | 0.00 | 0.02 | 0.02 | 94 | 1010.2 |
| 20260901035543 | 72 | 247 | 2.6 | 5.2 | 0.00 | 0.02 | 0.02 | 94 | 1010.1 |
| 20260901034818 | 72 | 268 | 2.6 | 5.2 | 0.00 | 0.02 | 0.02 | 94 | 1010.1 |
| 20260901033816 | 72 | 250 | 2.6 | 5.2 | 0.00 | 0.02 | 0.02 | 93 | 1010.0 |
| 20260901033317 | 72 | 268 | 3.5 | 5.2 | 0.00 | 0.02 | 0.02 | 93 | 1010.0 |
| 20260901032819 | 72 | 262 | 2.6 | 5.2 | 0.00 | 0.02 | 0.02 | 93 | 1010.0 |
| 20260901032318 | 72 | 251 | 2.6 | 5.2 | 0.00 | 0.02 | 0.02 | 92 | 1010.0 |
| 20260901031815 | 73 | 252 | 2.6 | 4.3 | 0.00 | 0.02 | 0.02 | 92 | 1010.0 |
| 20260901031316 | 73 | 228 | 2.6 | 6.1 | 0.00 | 0.02 | 0.02 | 92 | 1009.9 |
| 20260901030549 | 73 | 226 | 1.7 | 4.3 | 0.00 | 0.02 | 0.02 | 92 | 1009.9 |
| 20260901025816 | 73 | 216 | 2.6 | 4.3 | 0.00 | 0.02 | 0.02 | 92 | 1010.2 |
| 20260901025549 | 73 | 226 | 1.7 | 4.3 | 0.00 | 0.02 | 0.02 | 92 | 1010.2 |
| 20260901024814 | 73 | 210 | 1.7 | 5.2 | 0.00 | 0.02 | 0.02 | 91 | 1010.2 |
| 20260901024316 | 73 | 243 | 1.7 | 5.2 | 0.00 | 0.02 | 0.02 | 91 | 1010.2 |
| 20260901023812 | 73 | 206 | 2.6 | 5.2 | 0.00 | 0.02 | 0.02 | 91 | 1010.1 |
| 20260901023311 | 74 | 178 | 2.6 | 7.8 | 0.00 | 0.02 | 0.02 | 91 | 1010.2 |
| 20260901022810 | 74 | 212 | 3.5 | 7.8 | 0.00 | 0.02 | 0.02 | 91 | 1010.2 |
| 20260901022312 | 74 | 197 | 3.5 | 7.8 | 0.00 | 0.02 | 0.02 | 91 | 1010.0 |
| 20260901021811 | 74 | 210 | 3.5 | 7.8 | 0.00 | 0.02 | 0.02 | 91 | 1010.0 |
| 20260901021310 | 74 | 228 | 2.6 | 7.8 | 0.00 | 0.02 | 0.02 | 91 | 1010.0 |
| 20260901020811 | 74 | 189 | 3.5 | 6.1 | 0.00 | 0.02 | 0.02 | 91 | 1010.0 |
| 20260901020314 | 74 | 209 | 2.6 | 6.1 | 0.00 | 0.02 | 0.02 | 91 | 1010.1 |
| 20260901020036 | 75 | 212 | 1.7 | 5.2 | 0.00 | 0.02 | 0.02 | 91 | 1010.1 |
| 20260901015308 | 75 | 210 | 1.7 | 5.2 | 0.00 | 0.02 | 0.02 | 91 | 1010.1 |
| 20260901014809 | 75 | 227 | 1.7 | 5.2 | 0.00 | 0.02 | 0.02 | 91 | 1010.3 |
| 20260901014306 | 75 | 230 | 2.6 | 6.1 | 0.00 | 0.02 | 0.02 | 91 | 1010.3 |
| 20260901014032 | 75 | 209 | 3.5 | 8.7 | 0.00 | 0.02 | 0.02 | 90 | 1010.3 |
| 20260901013305 | 75 | 244 | 3.5 | 8.7 | 0.00 | 0.02 | 0.02 | 90 | 1010.2 |
| 20260901012806 | 75 | 261 | 3.5 | 8.7 | 0.00 | 0.02 | 0.02 | 90 | 1010.3 |
| 20260901012530 | 75 | 264 | 3.5 | 8.7 | 0.00 | 0.02 | 0.02 | 90 | 1010.1 |
| 20260901011808 | 75 | 230 | 2.6 | 8.7 | 0.00 | 0.02 | 0.02 | 90 | 1010.0 |
| 20260901011529 | 75 | 214 | 4.3 | 7.8 | 0.00 | 0.02 | 0.02 | 90 | 1010.0 |
| 20260901010805 | 75 | 197 | 3.5 | 7.8 | 0.00 | 0.02 | 0.02 | 90 | 1010.0 |
| 20260901010303 | 75 | 202 | 2.6 | 6.1 | 0.00 | 0.02 | 0.02 | 91 | 1010.0 |
| 20260901010036 | 75 | 245 | 2.6 | 6.1 | 0.00 | 0.02 | 0.02 | 91 | 1009.8 |
| 20260901004806 | 75 | 172 | 2.6 | 7.8 | 0.00 | 0.02 | 0.02 | 90 | 1009.8 |
| 20260901004304 | 75 | 186 | 2.6 | 7.8 | 0.00 | 0.02 | 0.02 | 90 | 1009.8 |
| 20260901004034 | 75 | 212 | 3.5 | 6.1 | 0.00 | 0.02 | 0.02 | 90 | 1009.8 |
| 20260901003302 | 74 | 220 | 3.5 | 6.1 | 0.00 | 0.02 | 0.02 | 90 | 1009.7 |
| 20260901002802 | 74 | 245 | 1.7 | 5.2 | 0.00 | 0.02 | 0.02 | 90 | 1009.7 |
| 20260901002305 | 75 | 193 | 1.7 | 6.1 | 0.00 | 0.02 | 0.02 | 90 | 1009.6 |
| 20260901001801 | 75 | 212 | 0.9 | 6.1 | 0.00 | 0.02 | 0.02 | 90 | 1009.7 |
| 20260901001300 | 75 | 159 | 2.6 | 5.2 | 0.00 | 0.02 | 0.02 | 89 | 1009.7 |
| 20260901000802 | 75 | 189 | 3.5 | 6.1 | 0.00 | 0.02 | 0.02 | 89 | 1009.6 |
| 20260901000300 | 75 | 196 | 0.9 | 7.8 | 0.00 | 0.02 | 0.02 | 89 | 1009.6 |
| 20260831235800 | 75 | 210 | 2.6 | 7.8 | 0.00 | 0.02 | 0.02 | 89 | 1009.7 |
| 20260831235255 | 75 | 176 | 1.7 | 6.1 | 0.00 | 0.02 | 0.02 | 88 | 1009.6 |
| 20260831234755 | 75 | 176 | 1.7 | 6.1 | 0.00 | 0.02 | 0.02 | 88 | 1009.7 |
| 20260831234254 | 75 | 175 | 1.7 | 4.3 | 0.00 | 0.02 | 0.02 | 88 | 1009.7 |
| 20260831233753 | 76 | 178 | 2.6 | 4.3 | 0.00 | 0.02 | 0.02 | 88 | 1009.7 |
| 20260831233251 | 76 | 172 | 1.7 | 7.8 | 0.00 | 0.02 | 0.02 | 88 | 1009.8 |
| 20260831232750 | 76 | 166 | 1.7 | 7.8 | 0.00 | 0.02 | 0.02 | 87 | 1009.9 |
| 20260831232248 | 76 | 192 | 2.6 | 5.2 | 0.00 | 0.02 | 0.02 | 88 | 1009.8 |
| 20260831231749 | 76 | 148 | 0.9 | 5.2 | 0.00 | 0.02 | 0.02 | 87 | 1009.7 |
| 20260831231249 | 76 | 176 | 2.6 | 5.2 | 0.00 | 0.02 | 0.02 | 88 | 1009.8 |
| 20260831230747 | 76 | 152 | 0.9 | 4.3 | 0.00 | 0.02 | 0.02 | 88 | 1009.7 |
| 20260831230511 | 76 | 149 | 1.7 | 4.3 | 0.00 | 0.02 | 0.02 | 88 | 1009.7 |
| 20260831225744 | 76 | 165 | 1.7 | 7.8 | 0.00 | 0.02 | 0.02 | 87 | 1009.8 |
| 20260831225508 | 76 | 162 | 2.6 | 7.8 | 0.00 | 0.02 | 0.02 | 87 | 1009.8 |
| 20260831224743 | 77 | 158 | 2.6 | 6.1 | 0.00 | 0.02 | 0.02 | 87 | 1009.9 |
| 20260831224242 | 76 | 142 | 3.5 | 7.8 | 0.00 | 0.02 | 0.02 | 88 | 1009.9 |
| 20260831223742 | 76 | 182 | 3.5 | 7.8 | 0.00 | 0.02 | 0.02 | 89 | 1009.9 |
| 20260831223246 | 76 | 181 | 1.7 | 6.1 | 0.00 | 0.02 | 0.02 | 91 | 1009.9 |
| 20260831223010 | 75 | 149 | 2.6 | 6.1 | 0.00 | 0.02 | 0.02 | 92 | 1009.8 |
| 20260831221740 | 74 | 106 | 0.9 | 2.6 | 0.00 | 0.02 | 0.02 | 90 | 1009.8 |
| 20260831221241 | 74 | 106 | 0.9 | 2.6 | 0.00 | 0.02 | 0.02 | 89 | 1009.9 |
| 20260831220741 | 74 | 78 | 0.9 | 2.6 | 0.00 | 0.02 | 0.02 | 88 | 1009.8 |
| 20260831220240 | 74 | 65 | 0.9 | 1.7 | 0.00 | 0.02 | 0.02 | 88 | 1009.9 |
| 20260831215739 | 74 | 54 | 0.0 | 1.7 | 0.00 | 0.02 | 0.02 | 88 | 1009.9 |
| 20260831215241 | 74 | 59 | 0.9 | 1.7 | 0.00 | 0.02 | 0.02 | 89 | 1010.0 |
| 20260831214737 | 74 | 93 | 0.0 | 1.7 | 0.00 | 0.02 | 0.02 | 91 | 1009.9 |
| 20260831214501 | 74 | 82 | 0.0 | 2.6 | 0.00 | 0.02 | 0.02 | 91 | 1009.9 |
| 20260831213735 | 73 | 79 | 0.9 | 2.6 | 0.00 | 0.02 | 0.02 | 90 | 1009.9 |
| 20260831213234 | 73 | 76 | 0.9 | 2.6 | 0.00 | 0.02 | 0.02 | 89 | 1010.1 |
| 20260831212736 | 73 | 68 | 0.9 | 2.6 | 0.00 | 0.02 | 0.02 | 90 | 1010.1 |
| 20260831212235 | 73 | 73 | 0.9 | 2.6 | 0.00 | 0.02 | 0.02 | 90 | 1010.1 |
| 20260831211736 | 73 | 71 | 0.0 | 0.9 | 0.00 | 0.02 | 0.02 | 91 | 1010.0 |
| 20260831211233 | 73 | 95 | 0.0 | 1.7 | 0.00 | 0.02 | 0.02 | 92 | 1010.0 |
| 20260831210736 | 72 | 97 | 0.0 | 1.7 | 0.00 | 0.02 | 0.02 | 93 | 1010.1 |
| 20260831210233 | 71 | 103 | 0.0 | 2.6 | 0.00 | 0.02 | 0.02 | 94 | 1010.2 |
| 20260831205733 | 70 | 99 | 0.9 | 5.2 | 0.00 | 0.02 | 0.02 | 94 | 1010.1 |
| 20260831205501 | 70 | 357 | 1.7 | 6.1 | 0.00 | 0.02 | 0.02 | 94 | 1010.2 |
| 20260831205000 | 70 | 90 | 2.6 | 9.6 | 0.00 | 0.02 | 0.02 | 94 | 1010.2 |
| 20260831204234 | 69 | 96 | 6.1 | 9.6 | 0.00 | 0.02 | 0.02 | 94 | 1010.3 |
| 20260831203735 | 69 | 87 | 5.2 | 9.6 | 0.00 | 0.02 | 0.02 | 94 | 1010.3 |
| 20260831203233 | 69 | 103 | 3.5 | 9.6 | 0.00 | 0.02 | 0.02 | 94 | 1010.4 |
| 20260831202732 | 69 | 117 | 4.3 | 9.6 | 0.00 | 0.02 | 0.02 | 94 | 1010.4 |
| 20260831202502 | 69 | 113 | 4.3 | 8.7 | 0.00 | 0.02 | 0.02 | 93 | 1010.5 |
| 20260831201732 | 70 | 75 | 4.3 | 9.6 | 0.00 | 0.02 | 0.02 | 93 | 1010.7 |